F8KHU-13 Weather Reports


time (UTC)temp
C
wind
direction
speed
KPH
gust
KPH
rain 1hr
cm
rain 24hr
cm
rain mn
cm
humidity
%
barometer
mb
20260505124034 13 141 9.7 12.9 0.00 0.00 0.00 32 1010.9
20260505124014 13 141 1.6 12.9 0.00 0.00 0.00 32 1010.9
20260505123953 13 141 6.4 12.9 0.00 0.00 0.00 32 1010.9
20260505122534 14 137 1.6 20.9 0.00 0.00 0.00 32 1011.1
20260505122514 14 136 6.4 20.9 0.00 0.00 0.00 32 1011.0
20260505122454 14 135 6.4 11.3 0.00 0.00 0.00 32 1011.1
20260505121034 14 140 1.6 14.5 0.00 0.00 0.00 32 1011.1
20260505121014 14 140 6.4 14.5 0.00 0.00 0.00 32 1011.1
20260505120954 14 138 9.7 14.5 0.00 0.00 0.00 32 1011.1
20260505115534 14 139 1.6 14.5 0.00 0.00 0.00 32 1011.2
20260505115514 14 139 6.4 14.5 0.00 0.00 0.00 32 1011.3
20260505115454 14 138 3.2 14.5 0.00 0.00 0.00 32 1011.2
20260505114034 13 148 1.6 14.5 0.00 0.00 0.00 32 1011.2
20260505113954 13 149 0.0 14.5 0.00 0.00 0.00 32 1011.2
20260505112535 13 142 1.6 11.3 0.00 0.00 0.00 33 1011.4
20260505112454 13 142 1.6 11.3 0.00 0.00 0.00 33 1011.4
20260505111035 13 131 0.0 8.0 0.00 0.00 0.00 33 1011.5
20260505111014 13 132 0.0 8.0 0.00 0.00 0.00 33 1011.4
20260505110954 13 133 1.6 8.0 0.00 0.00 0.00 33 1011.5
20260505101035 13 131 1.6 8.0 0.00 0.00 0.00 33 1011.6
20260505101015 13 132 0.0 8.0 0.00 0.00 0.00 33 1011.7
20260505100955 13 135 0.0 8.0 0.00 0.00 0.00 33 1011.7
20260505095535 13 135 4.8 12.9 0.00 0.00 0.00 33 1011.7
20260505095515 13 135 1.6 12.9 0.00 0.00 0.00 33 1011.6
20260505095455 13 136 4.8 12.9 0.00 0.00 0.00 33 1011.6
20260505094035 12 146 0.0 12.9 0.00 0.00 0.00 33 1011.5
20260505094015 12 146 0.0 12.9 0.00 0.00 0.00 33 1011.6
20260505093955 12 145 3.2 12.9 0.00 0.00 0.00 33 1011.6
20260505092536 13 142 1.6 20.9 0.00 0.00 0.00 33 1011.6
20260505092515 13 142 3.2 20.9 0.00 0.00 0.00 33 1011.6
20260505092455 13 143 6.4 14.5 0.00 0.00 0.00 33 1011.7
20260505091036 12 145 0.0 14.5 0.00 0.00 0.00 34 1011.6
20260505091016 12 147 0.0 14.5 0.00 0.00 0.00 33 1011.6
20260505090956 12 147 0.0 14.5 0.00 0.00 0.00 33 1011.7
20260505085536 13 145 8.0 14.5 0.00 0.00 0.00 33 1011.8
20260505085516 13 144 1.6 14.5 0.00 0.00 0.00 33 1011.7
20260505085456 13 144 6.4 14.5 0.00 0.00 0.00 33 1011.7
20260505084036 12 130 0.0 14.5 0.00 0.00 0.00 33 1011.6
20260505084016 12 132 1.6 14.5 0.00 0.00 0.00 33 1011.6
20260505083956 12 133 1.6 14.5 0.00 0.00 0.00 34 1011.6
20260505082536 12 152 1.6 12.9 0.00 0.00 0.00 34 1011.6
20260505082516 12 151 0.0 12.9 0.00 0.00 0.00 34 1011.6
20260505082456 12 151 4.8 12.9 0.00 0.00 0.00 34 1011.6
20260505081036 12 153 1.6 14.5 0.00 0.00 0.00 34 1011.7
20260505081016 12 154 4.8 14.5 0.00 0.00 0.00 35 1011.6
20260505080956 12 153 1.6 14.5 0.00 0.00 0.00 33 1011.6
20260505075548 12 149 3.2 12.9 0.00 0.00 0.00 34 1011.8
20260505075536 12 149 4.8 12.9 0.00 0.00 0.00 33 1011.8
20260505075516 12 149 3.2 12.9 0.00 0.00 0.00 34 1011.8
20260505075456 12 149 0.0 12.9 0.00 0.00 0.00 33 1011.9
20260505074037 12 145 4.8 11.3 0.00 0.00 0.00 33 1012.0
20260505073956 12 146 0.0 11.3 0.00 0.00 0.00 33 1012.0
20260505072516 12 138 0.0 8.0 0.00 0.00 0.00 33 1012.0
20260505072457 12 139 1.6 8.0 0.00 0.00 0.00 34 1012.0
20260505071037 12 144 0.0 11.3 0.00 0.00 0.00 33 1012.0
20260505071016 12 144 0.0 11.3 0.00 0.00 0.00 34 1012.0
20260505070957 12 144 1.6 11.3 0.00 0.00 0.00 34 1012.0
20260505065537 12 146 3.2 12.9 0.00 0.00 0.00 34 1012.1
20260505065517 12 146 0.0 12.9 0.00 0.00 0.00 34 1012.0
20260505065457 12 146 6.4 12.9 0.00 0.00 0.00 34 1012.1
20260505064037 12 144 0.0 12.9 0.00 0.00 0.00 34 1012.1
20260505064017 12 143 1.6 12.9 0.00 0.00 0.00 34 1012.1
20260505063957 12 144 0.0 12.9 0.00 0.00 0.00 34 1012.1
20260505062537 12 139 0.0 14.5 0.00 0.00 0.00 39 1012.0
20260505062517 12 138 0.0 14.5 0.00 0.00 0.00 39 1012.1
20260505062457 12 137 1.6 12.9 0.00 0.00 0.00 39 1012.1
20260505061037 12 151 1.6 17.7 0.00 0.00 0.00 45 1012.3
20260505061017 12 152 9.7 17.7 0.00 0.00 0.00 45 1012.2
20260505060957 12 151 4.8 17.7 0.00 0.00 0.00 45 1012.2
20260505055517 12 129 0.0 12.9 0.00 0.00 0.00 46 1012.1
20260505055457 12 130 0.0 12.9 0.00 0.00 0.00 46 1012.1
20260505054037 12 123 1.6 11.3 0.00 0.00 0.00 47 1012.1
20260505054018 12 124 1.6 11.3 0.00 0.00 0.00 46 1012.1
20260505053957 12 124 1.6 11.3 0.00 0.00 0.00 47 1012.1
20260505052538 12 130 1.6 11.3 0.00 0.00 0.00 48 1012.0
20260505052518 12 129 0.0 11.3 0.00 0.00 0.00 48 1012.1
20260505052458 12 128 1.6 11.3 0.00 0.00 0.00 47 1012.0
20260505051038 12 130 1.6 12.9 0.00 0.00 0.00 46 1012.0
20260505051018 12 129 0.0 12.9 0.00 0.00 0.00 46 1012.0
20260505050957 12 130 1.6 12.9 0.00 0.00 0.00 47 1012.1
20260505041038 12 122 3.2 12.9 0.00 0.00 0.00 44 1012.3
20260505041018 12 123 6.4 11.3 0.00 0.00 0.00 44 1012.3
20260505040958 12 123 1.6 11.3 0.00 0.00 0.00 44 1012.2
20260505035533 13 110 1.6 11.3 0.00 0.00 0.00 44 1012.3
20260505035513 13 110 1.6 11.3 0.00 0.00 0.00 44 1012.4
20260505035453 13 111 1.6 11.3 0.00 0.00 0.00 44 1012.3
20260505034034 13 114 1.6 8.0 0.00 0.00 0.00 44 1012.5
20260505034014 13 114 0.0 8.0 0.00 0.00 0.00 44 1012.5
20260505033954 13 113 1.6 8.0 0.00 0.00 0.00 40 1012.5
20260505032534 13 105 0.0 11.3 0.00 0.00 0.00 43 1012.6
20260505032514 13 103 1.6 11.3 0.00 0.00 0.00 39 1012.6
20260505032454 13 103 1.6 11.3 0.00 0.00 0.00 39 1012.7
20260505031034 13 118 0.0 11.3 0.00 0.00 0.00 36 1012.6
20260505031014 13 119 1.6 11.3 0.00 0.00 0.00 36 1012.6
20260505030954 13 118 0.0 11.3 0.00 0.00 0.00 35 1012.6
20260505025534 13 125 0.0 8.0 0.00 0.00 0.00 36 1012.7
20260505025514 13 127 0.0 8.0 0.00 0.00 0.00 36 1012.8
20260505025454 13 126 1.6 8.0 0.00 0.00 0.00 36 1012.8
20260505024034 13 146 1.6 11.3 0.00 0.00 0.00 37 1012.9
20260505024014 13 148 1.6 11.3 0.00 0.00 0.00 38 1013.0
20260505023954 13 147 0.0 11.3 0.00 0.00 0.00 36 1013.0
20260505022534 13 140 0.0 11.3 0.00 0.00 0.00 33 1012.8
20260505022514 13 140 1.6 11.3 0.00 0.00 0.00 33 1012.8
20260505022454 13 139 0.0 11.3 0.00 0.00 0.00 33 1012.8
20260505021034 13 130 1.6 12.9 0.00 0.00 0.00 33 1012.7
20260505021014 13 130 4.8 12.9 0.00 0.00 0.00 33 1012.6
20260505020954 13 131 6.4 12.9 0.00 0.00 0.00 33 1012.7
20260505015535 13 143 1.6 14.5 0.00 0.00 0.00 33 1012.8
20260505015514 13 142 0.0 14.5 0.00 0.00 0.00 33 1012.8
20260505015455 13 143 4.8 14.5 0.00 0.00 0.00 33 1012.8
20260505014035 13 135 1.6 12.9 0.00 0.00 0.00 33 1012.7
20260505014015 13 135 4.8 12.9 0.00 0.00 0.00 33 1012.7
20260505013955 13 137 4.8 12.9 0.00 0.00 0.00 33 1012.7
20260505012535 14 128 0.0 6.4 0.00 0.00 0.00 33 1012.9
20260505012515 14 128 3.2 6.4 0.00 0.00 0.00 33 1012.8
20260505012455 14 128 0.0 6.4 0.00 0.00 0.00 33 1012.8
20260505011035 14 115 0.0 8.0 0.00 0.00 0.00 33 1012.8
20260505011015 14 116 0.0 8.0 0.00 0.00 0.00 33 1012.8
20260505010955 14 116 0.0 8.0 0.00 0.00 0.00 33 1012.9
20260505005535 14 138 1.6 11.3 0.00 0.00 0.00 33 1013.0
20260505005515 14 139 3.2 11.3 0.00 0.00 0.00 33 1012.9
20260505005455 14 138 4.8 11.3 0.00 0.00 0.00 33 1012.9
20260505004035 14 130 0.0 12.9 0.00 0.00 0.00 33 1012.8
20260505004015 14 129 0.0 12.9 0.00 0.00 0.00 33 1012.9
20260505003955 14 128 0.0 12.9 0.00 0.00 0.00 33 1012.9
20260505002535 14 130 6.4 11.3 0.00 0.00 0.00 33 1013.0
20260505002515 14 130 9.7 11.3 0.00 0.00 0.00 33 1013.0
20260505002455 14 130 1.6 11.3 0.00 0.00 0.00 33 1013.0
20260505001035 15 149 1.6 8.0 0.00 0.00 0.00 32 1013.2
20260505001015 15 149 6.4 8.0 0.00 0.00 0.00 32 1013.1
20260505000956 15 149 3.2 8.0 0.00 0.00 0.00 32 1013.2
20260504235536 15 131 1.6 6.4 0.00 0.00 0.00 32 1013.2
20260504235516 15 132 0.0 6.4 0.00 0.00 0.00 32 1013.3
20260504235456 15 131 0.0 6.4 0.00 0.00 0.00 32 1013.3
20260504234016 15 133 0.0 8.0 0.00 0.00 0.00 32 1013.4
20260504233956 15 132 0.0 8.0 0.00 0.00 0.00 32 1013.4
20260504232536 15 133 3.2 6.4 0.00 0.00 0.00 32 1013.5
20260504232516 15 134 1.6 6.4 0.00 0.00 0.00 32 1013.4
20260504232456 15 135 0.0 6.4 0.00 0.00 0.00 32 1013.4
20260504231036 15 184 0.0 0.0 0.00 0.00 0.00 32 1013.7
20260504231016 15 184 0.0 0.0 0.00 0.00 0.00 32 1013.6
20260504230956 15 185 0.0 0.0 0.00 0.00 0.00 32 1013.7
20260504225536 15 166 0.0 0.0 0.00 0.00 0.00 32 1013.7
20260504225516 15 164 0.0 0.0 0.00 0.00 0.00 32 1013.7
20260504225456 15 168 0.0 0.0 0.00 0.00 0.00 32 1013.7
20260504224036 15 130 0.0 0.0 0.00 0.00 0.00 32 1013.8
20260504224016 15 132 0.0 0.0 0.00 0.00 0.00 32 1013.8
20260504223956 15 132 0.0 0.0 0.00 0.00 0.00 32 1013.7
20260504222537 15 124 0.0 0.0 0.00 0.00 0.00 32 1013.8
20260504222457 15 124 0.0 0.0 0.00 0.00 0.00 32 1013.8
20260504221037 15 152 0.0 0.0 0.00 0.00 0.00 32 1013.9
20260504220957 15 151 0.0 0.0 0.00 0.00 0.00 32 1013.9
20260504215537 15 146 0.0 0.0 0.00 0.00 0.00 32 1014.0
20260504215516 15 145 0.0 0.0 0.00 0.00 0.00 32 1014.0
20260504215457 15 145 0.0 0.0 0.00 0.00 0.00 32 1013.9
20260504214036 15 204 0.0 0.0 0.00 0.00 0.00 31 1014.2
20260504214017 15 206 0.0 0.0 0.00 0.00 0.00 31 1014.1
20260504213957 15 209 0.0 0.0 0.00 0.00 0.00 31 1014.2
20260504212537 15 75 0.0 0.0 0.00 0.00 0.00 31 1014.2
20260504212457 15 74 0.0 0.0 0.00 0.00 0.00 31 1014.2
20260504211037 15 107 0.0 0.0 0.00 0.00 0.00 31 1014.3
20260504211017 15 107 0.0 0.0 0.00 0.00 0.00 31 1014.4
20260504210957 15 108 0.0 0.0 0.00 0.00 0.00 31 1014.4
20260504205537 15 85 0.0 0.0 0.00 0.18 0.00 30 1014.5
20260504205517 15 85 0.0 0.0 0.00 0.18 0.00 30 1014.4
20260504205457 15 85 0.0 0.0 0.00 0.18 0.00 30 1014.5
20260504204038 15 149 0.0 0.0 0.00 0.18 0.00 30 1014.6
20260504204017 15 150 0.0 0.0 0.00 0.18 0.00 30 1014.6
20260504203957 15 152 0.0 0.0 0.00 0.18 0.00 30 1014.6
20260504202537 16 70 0.0 0.0 0.00 0.18 0.00 30 1014.6
20260504202518 16 72 0.0 0.0 0.00 0.18 0.00 30 1014.6
20260504202457 16 74 0.0 0.0 0.00 0.18 0.00 30 1014.6
20260504201038 16 65 0.0 1.6 0.00 0.18 0.00 30 1014.5
20260504200958 16 64 0.0 1.6 0.00 0.18 0.00 30 1014.5
20260504195538 16 162 0.0 1.6 0.00 0.36 0.00 30 1014.5
20260504195518 16 164 0.0 1.6 0.00 0.36 0.00 30 1014.5
20260504195458 16 165 0.0 1.6 0.00 0.36 0.00 30 1014.5
20260504194038 16 161 0.0 1.6 0.00 0.36 0.00 30 1014.4
20260504193958 16 160 0.0 1.6 0.00 0.36 0.00 30 1014.3
20260504192538 16 125 0.0 3.2 0.00 0.36 0.00 30 1014.1
20260504192518 16 123 0.0 3.2 0.00 0.36 0.00 30 1014.1
20260504192458 16 122 0.0 3.2 0.00 0.36 0.00 30 1014.1
20260504191038 16 138 0.0 1.6 0.00 0.36 0.00 30 1014.0
20260504191018 16 139 0.0 1.6 0.00 0.36 0.00 30 1014.1
20260504190958 16 140 0.0 1.6 0.00 0.36 0.00 30 1014.0
20260504185518 16 171 0.0 1.6 0.00 0.41 0.00 30 1014.0
20260504185459 16 171 0.0 1.6 0.00 0.41 0.00 30 1014.1
20260504184033 16 125 0.0 3.2 0.00 0.41 0.00 30 1013.9
20260504184014 16 121 0.0 3.2 0.00 0.41 0.00 30 1013.9
20260504183953 16 119 0.0 3.2 0.00 0.41 0.00 30 1014.0
20260504182533 16 139 0.0 6.4 0.00 0.41 0.00 30 1013.7
20260504182514 16 141 0.0 6.4 0.00 0.41 0.00 30 1013.7
20260504182454 16 142 0.0 6.4 0.00 0.41 0.00 30 1013.7
20260504181034 17 115 1.6 8.0 0.00 0.41 0.00 28 1013.7
20260504181014 17 116 0.0 8.0 0.00 0.41 0.00 28 1013.7
20260504180954 17 117 1.6 8.0 0.00 0.41 0.00 28 1013.6
20260504175534 17 141 0.0 6.4 0.00 0.46 0.00 29 1013.8
20260504175514 17 140 1.6 6.4 0.00 0.46 0.00 29 1013.8
20260504175454 17 141 3.2 6.4 0.00 0.46 0.00 29 1013.7
20260504174034 17 135 0.0 1.6 0.00 0.46 0.00 29 1013.9
20260504174014 17 133 0.0 1.6 0.00 0.46 0.00 29 1013.9
20260504173954 17 133 0.0 1.6 0.00 0.46 0.00 28 1013.9
20260504172534 17 134 0.0 3.2 0.00 0.46 0.00 28 1014.0
20260504172514 17 134 0.0 3.2 0.00 0.46 0.00 28 1013.9
20260504172454 17 132 0.0 3.2 0.00 0.46 0.00 28 1013.9
20260504171034 17 135 0.0 3.2 0.00 0.46 0.00 28 1014.0
20260504171014 17 133 0.0 3.2 0.00 0.46 0.00 28 1014.0
20260504170955 17 132 0.0 3.2 0.00 0.46 0.00 28 1014.0
20260504151035 17 69 0.0 11.3 0.00 0.86 0.00 29 1014.4
20260504150956 17 70 0.0 11.3 0.00 0.86 0.00 29 1014.4
20260504141036 21 122 9.7 17.7 0.00 0.91 0.00 27 1014.7
20260504141016 21 123 12.9 17.7 0.00 0.91 0.00 26 1014.6
20260504140956 21 124 14.5 17.7 0.00 0.91 0.00 26 1014.6